EW6810 Weather Reports


Display with metric or nautical units.
time (UTC)temp
F
wind
direction
speed
MPH
gust
MPH
rain 1hr
in
rain 24hr
in
rain mn
in
humidity
%
barometer
mb
20260905120542 54 310 0.0 2.0 0.00 0.00 0.00 91 1014.1
20260905120042 54 310 0.0 2.0 0.00 0.00 0.00 91 1014.0
20260905115541 54 311 0.0 3.0 0.00 0.00 0.00 91 1014.0
20260905115041 54 311 0.0 3.0 0.00 0.00 0.00 91 1014.0
20260905114548 54 250 0.0 1.0 0.00 0.00 0.00 91 1014.1
20260905114044 54 250 0.0 2.0 0.00 0.00 0.00 91 1014.0
20260905113641 54 250 0.0 2.0 0.00 0.00 0.00 91 1014.0
20260905113040 54 251 0.0 5.0 0.00 0.00 0.00 91 1014.0
20260905112539 54 251 1.0 5.0 0.00 0.00 0.00 91 1014.0
20260905112038 54 42 0.0 2.0 0.00 0.00 0.00 91 1014.0
20260905111543 54 42 0.0 2.0 0.00 0.00 0.00 91 1013.9
20260905111039 54 42 0.0 1.0 0.00 0.00 0.00 91 1013.9
20260905110538 54 42 0.0 2.0 0.00 0.00 0.00 91 1013.9
20260905110038 54 42 0.0 2.0 0.00 0.00 0.00 91 1013.7
20260905105537 54 42 0.0 2.0 0.00 0.00 0.00 91 1013.7
20260905105037 54 42 0.0 3.0 0.00 0.00 0.00 91 1013.7
20260905104540 54 43 0.0 3.0 0.00 0.00 0.00 91 1013.8
20260905104037 54 19 0.0 2.0 0.00 0.00 0.00 91 1013.7
20260905103540 54 22 0.0 4.0 0.00 0.00 0.00 91 1013.8
20260905103039 54 23 2.0 4.0 0.00 0.00 0.00 91 1013.7
20260905102536 54 356 0.0 3.0 0.00 0.00 0.00 91 1013.7
20260905102035 54 356 0.0 2.0 0.00 0.00 0.00 91 1013.7
20260905101537 54 356 0.0 2.0 0.00 0.00 0.00 91 1013.7
20260905101035 54 340 0.0 4.0 0.00 0.00 0.00 91 1013.7
20260905100535 54 340 1.0 4.0 0.00 0.00 0.00 91 1013.7
20260905100035 55 320 0.0 4.0 0.00 0.00 0.00 90 1013.7
20260905095535 55 37 0.0 4.0 0.00 0.00 0.00 90 1013.9
20260905095034 55 13 0.0 3.0 0.00 0.00 0.00 90 1013.9
20260905094533 55 14 0.0 3.0 0.00 0.00 0.00 91 1013.9
20260905094033 55 333 0.0 2.0 0.00 0.00 0.00 90 1013.9
20260905093533 55 333 0.0 2.0 0.00 0.00 0.00 90 1013.9
20260905093032 55 321 0.0 2.0 0.00 0.00 0.00 90 1014.0
20260905092534 55 319 0.0 6.0 0.00 0.00 0.00 90 1013.9
20260905092031 55 319 1.0 6.0 0.00 0.00 0.00 90 1013.9
20260905091531 55 296 1.0 4.0 0.00 0.00 0.00 90 1013.9
20260905091031 55 287 0.0 3.0 0.00 0.00 0.00 90 1013.9
20260905090530 55 286 1.0 3.0 0.00 0.00 0.00 90 1013.9
20260905090031 55 294 0.0 5.0 0.00 0.00 0.00 90 1013.8
20260905085530 55 288 1.0 5.0 0.00 0.00 0.00 89 1013.9
20260905085031 55 264 0.0 3.0 0.00 0.00 0.00 89 1013.9
20260905084528 55 265 0.0 8.0 0.00 0.00 0.00 89 1013.9
20260905084035 55 275 1.0 8.0 0.00 0.00 0.00 89 1013.8
20260905083527 56 261 0.0 2.0 0.00 0.00 0.00 89 1013.8
20260905083034 56 257 0.0 2.0 0.00 0.00 0.00 89 1013.8
20260905082526 56 257 0.0 2.0 0.00 0.00 0.00 89 1013.7
20260905082028 56 257 0.0 2.0 0.00 0.00 0.00 89 1013.6
20260905081525 56 257 0.0 2.0 0.00 0.00 0.00 89 1013.5
20260905081025 56 257 0.0 2.0 0.00 0.00 0.00 89 1013.6
20260905080524 56 256 0.0 2.0 0.00 0.00 0.00 89 1013.6
20260905080026 56 256 0.0 2.0 0.00 0.00 0.00 89 1013.6
20260905075525 56 256 0.0 3.0 0.00 0.00 0.00 89 1013.6
20260905075026 56 256 0.0 3.0 0.00 0.00 0.00 88 1013.6
20260905074524 56 224 0.0 2.0 0.00 0.00 0.00 89 1013.5
20260905074024 56 224 0.0 4.0 0.00 0.00 0.00 89 1013.5
20260905073523 56 223 1.0 4.0 0.00 0.00 0.00 89 1013.4
20260905073026 56 3 1.0 2.0 0.00 0.00 0.00 89 1013.4
20260905072527 56 358 0.0 1.0 0.00 0.00 0.00 89 1013.4
20260905072023 56 358 0.0 1.0 0.00 0.00 0.00 89 1013.4
20260905071526 56 358 0.0 2.0 0.00 0.00 0.00 89 1013.3
20260905071020 56 358 0.0 2.0 0.00 0.00 0.00 89 1013.3
20260905070520 56 358 0.0 1.0 0.00 0.00 0.00 88 1013.3
20260905070019 56 358 0.0 2.0 0.00 0.00 0.00 88 1013.3
20260905065518 56 358 1.0 2.0 0.00 0.00 0.00 88 1013.2
20260905065024 56 288 0.0 2.0 0.00 0.00 0.00 88 1013.2
20260905064518 56 288 0.0 2.0 0.00 0.00 0.00 88 1013.2
20260905064024 56 288 0.0 1.0 0.00 0.00 0.00 88 1013.2
20260905063617 56 288 0.0 1.0 0.00 0.00 0.00 88 1013.1
20260905063017 56 286 0.0 1.0 0.00 0.00 0.00 88 1013.2
20260905062518 56 286 0.0 1.0 0.00 0.00 0.00 88 1013.2
20260905062017 56 286 0.0 3.0 0.00 0.00 0.00 88 1013.2
20260905061516 56 286 0.0 3.0 0.00 0.00 0.00 88 1013.1
20260905061016 56 331 0.0 5.0 0.00 0.00 0.00 88 1013.1
20260905060515 56 338 0.0 5.0 0.00 0.00 0.00 88 1013.1
20260905060015 56 262 0.0 2.0 0.00 0.00 0.00 88 1013.1
20260905055515 56 262 0.0 5.0 0.00 0.00 0.00 88 1013.1
20260905055015 56 262 1.0 5.0 0.00 0.00 0.00 88 1013.1
20260905054515 56 235 0.0 4.0 0.00 0.00 0.00 88 1013.1
20260905054016 56 287 0.0 2.0 0.00 0.00 0.00 88 1013.1
20260905053516 57 287 0.0 3.0 0.00 0.00 0.00 88 1013.1
20260905053014 57 298 0.0 2.0 0.00 0.00 0.00 88 1013.1
20260905052613 57 299 0.0 3.0 0.00 0.00 0.00 88 1013.1
20260905052013 57 299 0.0 3.0 0.00 0.00 0.00 88 1013.0
20260905051523 57 290 0.0 2.0 0.00 0.00 0.00 88 1013.0
20260905051113 57 290 0.0 2.0 0.00 0.00 0.00 88 1013.0
20260905050513 57 290 0.0 2.0 0.00 0.00 0.00 88 1013.1
20260905050016 57 290 0.0 5.0 0.00 0.00 0.00 88 1013.0
20260905045512 57 290 0.0 5.0 0.00 0.00 0.00 88 1013.1
20260905045012 57 278 1.0 3.0 0.00 0.00 0.00 87 1013.1
20260905044513 57 191 0.0 1.0 0.00 0.00 0.00 87 1013.1
20260905044011 57 191 0.0 1.0 0.00 0.00 0.00 87 1013.0
20260905043511 57 191 0.0 2.0 0.00 0.00 0.00 87 1013.0
20260905043010 57 191 0.0 2.0 0.00 0.00 0.00 86 1013.0
20260905042509 57 191 0.0 2.0 0.00 0.00 0.00 87 1012.9
20260905042011 57 191 0.0 2.0 0.00 0.00 0.00 86 1012.9
20260905041510 57 191 0.0 2.0 0.00 0.00 0.00 86 1012.9
20260905041009 57 191 0.0 2.0 0.00 0.00 0.00 86 1012.8
20260905040511 58 191 0.0 1.0 0.00 0.00 0.00 86 1012.8
20260905040009 58 191 0.0 1.0 0.00 0.00 0.00 86 1012.8
20260905035508 58 191 0.0 1.0 0.00 0.00 0.00 86 1012.8
20260905035008 58 191 0.0 1.0 0.00 0.00 0.00 86 1012.9
20260905034510 58 191 0.0 1.0 0.00 0.00 0.00 86 1012.8
20260905034007 58 191 0.0 1.0 0.00 0.00 0.00 86 1012.8
20260905033507 58 191 0.0 1.0 0.00 0.00 0.00 86 1012.7
20260905033007 58 191 0.0 1.0 0.00 0.00 0.00 86 1012.7
20260905032506 58 191 0.0 1.0 0.00 0.00 0.00 86 1012.6
20260905032005 59 191 0.0 2.0 0.00 0.00 0.00 86 1012.6
20260905031507 59 191 0.0 2.0 0.00 0.00 0.00 86 1012.5
20260905031004 59 191 0.0 1.0 0.00 0.00 0.00 86 1012.5
20260905030504 59 191 0.0 1.0 0.00 0.00 0.00 86 1012.4
20260905030004 59 191 0.0 2.0 0.00 0.00 0.00 86 1012.4
20260905025503 59 191 0.0 2.0 0.00 0.00 0.00 86 1012.3
20260905025004 60 191 0.0 1.0 0.00 0.00 0.00 86 1012.3
20260905024507 60 191 0.0 1.0 0.00 0.00 0.00 86 1012.2
20260905024003 60 191 0.0 0.0 0.00 0.00 0.00 86 1012.3
20260905023502 60 191 0.0 1.0 0.00 0.00 0.00 86 1012.3
20260905023002 60 191 0.0 1.0 0.00 0.00 0.00 86 1012.2
20260905022503 60 191 0.0 0.0 0.00 0.00 0.00 86 1012.2
20260905022004 60 191 0.0 0.0 0.00 0.00 0.00 86 1012.2
20260905021602 60 191 0.0 1.0 0.00 0.00 0.00 86 1012.1
20260905021101 60 191 0.0 1.0 0.00 0.00 0.00 86 1012.1
20260905020601 60 191 0.0 0.0 0.00 0.00 0.00 85 1012.1
20260905015559 60 191 0.0 1.0 0.00 0.00 0.00 85 1012.0
20260905015059 60 191 0.0 1.0 0.00 0.00 0.00 85 1011.9
20260905014558 60 191 0.0 1.0 0.00 0.00 0.00 85 1011.9
20260905014057 60 191 0.0 1.0 0.00 0.00 0.00 85 1011.9
20260905013557 60 191 0.0 1.0 0.00 0.00 0.00 85 1011.8
20260905013056 60 191 0.0 1.0 0.00 0.00 0.00 85 1011.8
20260905012558 60 191 0.0 2.0 0.00 0.00 0.00 85 1011.8
20260905012058 60 191 0.0 2.0 0.00 0.00 0.00 85 1011.9
20260905011559 60 191 0.0 2.0 0.00 0.00 0.00 85 1011.9
20260905011100 60 191 0.0 2.0 0.00 0.00 0.00 84 1011.9
20260905010557 60 191 0.0 1.0 0.00 0.00 0.00 84 1011.8
20260905010106 61 191 0.0 1.0 0.00 0.00 0.00 83 1011.8
20260905005556 61 191 0.0 1.0 0.00 0.00 0.00 83 1011.9
20260905005055 61 191 0.0 2.0 0.00 0.00 0.00 81 1011.8
20260905004556 61 191 0.0 2.0 0.00 0.00 0.00 81 1011.8
20260905004055 61 191 0.0 2.0 0.00 0.00 0.00 80 1011.8
20260905003555 61 191 0.0 2.0 0.00 0.00 0.00 80 1011.7
20260905003054 61 191 1.0 2.0 0.00 0.00 0.00 80 1011.7
20260905002553 61 191 0.0 2.0 0.00 0.00 0.00 80 1011.6
20260905002052 61 191 1.0 2.0 0.00 0.00 0.00 80 1011.6
20260905001556 61 191 0.0 3.0 0.00 0.00 0.00 80 1011.5
20260905001056 61 191 1.0 3.0 0.00 0.00 0.00 80 1011.5
20260905000555 61 191 1.0 3.0 0.00 0.00 0.00 80 1011.5
20260904235554 61 239 0.0 2.0 0.00 0.00 0.00 79 1011.5
20260904235053 61 239 0.0 2.0 0.00 0.00 0.00 79 1011.5
20260904234551 61 239 1.0 3.0 0.00 0.00 0.00 78 1011.5
20260904234052 61 240 1.0 4.0 0.00 0.00 0.00 78 1011.5
20260904233551 61 201 1.0 5.0 0.00 0.00 0.00 78 1011.4
20260904233051 62 192 1.0 5.0 0.00 0.00 0.00 78 1011.4
20260904232551 62 215 1.0 4.0 0.00 0.00 0.00 77 1011.5
20260904232050 62 27 0.0 3.0 0.00 0.00 0.00 77 1011.4
20260904231650 62 178 0.0 4.0 0.00 0.00 0.00 75 1011.4
20260904231050 63 183 2.0 4.0 0.00 0.00 0.00 75 1011.5
20260904230549 62 153 0.0 3.0 0.00 0.00 0.00 76 1011.4
20260904230105 62 38 0.0 3.0 0.00 0.00 0.00 76 1011.4
20260904225547 62 137 1.0 4.0 0.00 0.00 0.00 76 1011.5
20260904225047 62 134 1.0 4.0 0.00 0.00 0.00 76 1011.5
20260904224548 61 206 1.0 4.0 0.00 0.00 0.00 79 1011.5
20260904224048 61 198 1.0 3.0 0.00 0.00 0.00 78 1011.6
20260904223545 60 210 1.0 3.0 0.00 0.00 0.00 78 1011.5
20260904223056 61 136 0.0 3.0 0.00 0.00 0.00 78 1011.5
20260904222543 60 135 0.0 3.0 0.00 0.00 0.00 79 1011.5
20260904222043 60 137 1.0 3.0 0.00 0.00 0.00 78 1011.4
20260904221545 60 137 1.0 3.0 0.00 0.00 0.00 78 1011.4
20260904221043 60 134 0.0 3.0 0.00 0.00 0.00 79 1011.4
20260904220546 59 134 1.0 3.0 0.00 0.00 0.00 78 1011.4
20260904220054 59 140 1.0 3.0 0.00 0.00 0.00 79 1011.4
20260904215543 59 140 0.0 3.0 0.00 0.00 0.00 79 1011.3
20260904215042 59 138 1.0 3.0 0.00 0.00 0.00 77 1011.3
20260904214543 60 144 1.0 6.0 0.00 0.00 0.00 77 1011.4
20260904214042 60 158 2.0 6.0 0.00 0.00 0.00 77 1011.3
20260904213542 60 167 0.0 3.0 0.00 0.00 0.00 77 1011.3
20260904213042 60 153 0.0 4.0 0.00 0.00 0.00 78 1011.4
20260904212542 60 201 1.0 4.0 0.00 0.00 0.00 77 1011.3
20260904212042 60 59 1.0 3.0 0.00 0.00 0.00 77 1011.3
20260904211544 60 58 0.0 3.0 0.00 0.00 0.00 79 1011.3
20260904211041 60 203 0.0 3.0 0.00 0.00 0.00 79 1011.2
20260904210541 60 203 1.0 4.0 0.00 0.00 0.00 77 1011.2
20260904210047 60 130 1.0 4.0 0.00 0.00 0.00 76 1011.1
20260904205541 60 156 1.0 4.0 0.00 0.00 0.00 76 1011.1
20260904205041 60 176 0.0 4.0 0.00 0.00 0.00 77 1011.1
20260904204540 60 152 0.0 4.0 0.00 0.00 0.00 77 1011.0
20260904204039 60 203 0.0 3.0 0.00 0.00 0.00 78 1010.9
20260904203539 60 75 1.0 4.0 0.00 0.00 0.00 79 1010.9
20260904203038 60 180 0.0 4.0 0.00 0.00 0.00 80 1011.0
20260904202537 60 101 0.0 2.0 0.00 0.00 0.00 80 1010.9
20260904202038 59 151 0.0 2.0 0.00 0.00 0.00 79 1010.9
20260904201548 60 151 0.0 6.0 0.00 0.00 0.00 81 1010.9
20260904201036 59 204 1.0 6.0 0.00 0.00 0.00 81 1010.9
20260904200537 59 207 1.0 4.0 0.00 0.00 0.00 80 1010.9
20260904200050 59 149 2.0 4.0 0.00 0.00 0.00 79 1011.0
20260904195537 59 169 0.0 2.0 0.00 0.00 0.00 80 1011.0
20260904195036 59 168 0.0 2.0 0.00 0.00 0.00 80 1011.1
20260904194543 59 200 0.0 3.0 0.00 0.00 0.00 81 1011.0
20260904194034 58 202 1.0 4.0 0.00 0.00 0.00 80 1011.1
20260904193536 58 191 1.0 4.0 0.00 0.00 0.00 81 1011.1
20260904193032 59 166 1.0 3.0 0.00 0.00 0.00 81 1011.2
20260904192534 58 223 0.0 4.0 0.00 0.00 0.00 83 1011.3
20260904192031 58 178 1.0 4.0 0.00 0.00 0.00 82 1011.3
20260904191531 58 159 0.0 4.0 0.00 0.00 0.00 81 1011.4
20260904191033 58 171 1.0 4.0 0.00 0.00 0.00 82 1011.4
20260904190630 58 69 0.0 2.0 0.00 0.00 0.00 83 1011.4
20260904190056 58 69 0.0 3.0 0.00 0.00 0.00 82 1011.3
20260904185554 58 71 1.0 3.0 0.00 0.00 0.00 82 1011.2
20260904185056 58 183 0.0 2.0 0.00 0.00 0.00 81 1011.1
20260904184609 58 183 0.0 3.0 0.00 0.00 0.00 81 1011.0
20260904184051 57 183 0.0 3.0 0.00 0.00 0.00 81 1011.0
20260904183550 57 183 0.0 1.0 0.00 0.00 0.00 81 1010.9
20260904183049 57 183 0.0 1.0 0.00 0.00 0.00 82 1011.1
20260904182550 57 183 0.0 2.0 0.00 0.00 0.00 82 1011.1
20260904182046 57 183 0.0 2.0 0.00 0.00 0.00 83 1011.1
20260904181545 57 183 0.0 2.0 0.00 0.00 0.00 83 1011.0
20260904181045 57 183 0.0 3.0 0.00 0.00 0.00 83 1011.0
20260904180644 57 183 0.0 3.0 0.00 0.00 0.00 83 1010.9
20260904180041 57 237 0.0 3.0 0.00 0.00 0.00 82 1010.8
20260904175539 57 237 1.0 3.0 0.00 0.01 0.00 83 1010.8
20260904175039 57 142 0.0 3.0 0.00 0.01 0.00 84 1010.8
20260904174609 56 142 1.0 3.0 0.00 0.01 0.00 84 1010.7
20260904174038 56 85 0.0 2.0 0.00 0.01 0.00 84 1010.6
20260904173536 56 67 0.0 2.0 0.00 0.01 0.00 84 1010.7
20260904173038 56 67 0.0 2.0 0.00 0.01 0.00 85 1010.6
20260904172535 56 67 0.0 2.0 0.00 0.01 0.00 85 1010.4
20260904172035 56 67 0.0 2.0 0.00 0.01 0.00 85 1010.5
20260904171536 56 67 0.0 2.0 0.00 0.01 0.00 86 1010.5
20260904171035 56 354 1.0 3.0 0.00 0.01 0.00 86 1010.5
20260904170638 56 354 0.0 3.0 0.00 0.01 0.00 87 1010.6
20260904170049 56 349 0.0 2.0 0.00 0.01 0.00 86 1010.5
20260904165548 56 349 0.0 2.0 0.00 0.03 0.00 86 1010.5
20260904165045 56 349 0.0 2.0 0.00 0.03 0.00 85 1010.5
20260904164546 56 3 0.0 2.0 0.00 0.03 0.00 84 1010.5
20260904164045 56 358 0.0 2.0 0.00 0.03 0.00 84 1010.5
20260904163544 56 358 0.0 2.0 0.00 0.03 0.00 85 1010.5
20260904163051 56 358 0.0 1.0 0.00 0.03 0.00 86 1010.4
20260904162542 55 358 0.0 0.0 0.00 0.03 0.00 86 1010.5
20260904162040 55 358 0.0 0.0 0.00 0.03 0.00 87 1010.5
20260904161540 55 358 0.0 0.0 0.00 0.03 0.00 87 1010.5
20260904161039 55 358 0.0 0.0 0.00 0.03 0.00 88 1010.5
20260904160640 55 358 0.0 1.0 0.00 0.03 0.00 88 1010.4
20260904160106 55 358 0.0 1.0 0.00 0.03 0.00 90 1010.4
20260904155601 54 358 0.0 1.0 0.00 0.03 0.00 91 1010.4
20260904155056 54 358 0.0 2.0 0.00 0.03 0.00 92 1010.3
20260904154555 53 358 0.0 2.0 0.00 0.03 0.00 93 1010.2
20260904154054 52 358 0.0 0.0 0.00 0.03 0.00 92 1010.2
20260904153553 52 358 0.0 0.0 0.00 0.03 0.00 93 1010.2
20260904153114 52 358 0.0 0.0 0.00 0.03 0.00 92 1010.1
20260904152554 52 358 0.0 0.0 0.00 0.03 0.00 92 1010.0
20260904152050 52 358 0.0 0.0 0.00 0.03 0.00 92 1009.9
20260904151552 51 358 0.0 0.0 0.00 0.03 0.00 92 1009.9
20260904151048 51 358 0.0 0.0 0.00 0.03 0.00 92 1009.8
20260904150649 51 358 0.0 1.0 0.00 0.03 0.00 92 1009.8
20260904150037 51 358 0.0 2.0 0.00 0.03 0.00 92 1009.8
20260904145534 51 358 0.0 2.0 0.00 0.03 0.00 92 1009.7
20260904145031 51 2 0.0 2.0 0.00 0.03 0.00 92 1009.7
20260904144532 51 1 0.0 3.0 0.00 0.03 0.00 92 1009.6
20260904144033 51 1 1.0 3.0 0.00 0.03 0.00 92 1009.4
20260904143532 51 13 0.0 3.0 0.00 0.03 0.00 92 1009.5
20260904143032 51 313 0.0 3.0 0.00 0.03 0.00 92 1009.5
20260904142530 50 356 0.0 3.0 0.00 0.03 0.00 92 1009.6
20260904142034 50 275 0.0 2.0 0.00 0.03 0.00 92 1009.7
20260904141527 50 48 0.0 3.0 0.00 0.03 0.00 92 1009.6
20260904141027 50 48 0.0 3.0 0.00 0.03 0.00 92 1009.6
20260904140527 50 47 0.0 1.0 0.00 0.03 0.00 92 1009.5
20260904140025 50 47 0.0 3.0 0.00 0.03 0.00 92 1009.3
20260904135524 50 47 0.0 3.0 0.00 0.04 0.00 92 1009.3
20260904135124 50 47 0.0 1.0 0.00 0.04 0.00 92 1009.3
20260904134521 50 47 0.0 2.0 0.00 0.04 0.00 92 1009.2
20260904134021 50 47 0.0 2.0 0.00 0.04 0.00 92 1009.2
20260904133521 50 47 0.0 1.0 0.00 0.04 0.00 92 1009.1
20260904133020 50 47 0.0 2.0 0.00 0.04 0.00 92 1009.1
20260904132520 50 47 0.0 2.0 0.00 0.04 0.00 92 1009.1
20260904132020 50 101 0.0 1.0 0.00 0.04 0.00 92 1009.0
20260904131520 50 101 0.0 2.0 0.00 0.04 0.00 92 1009.0
20260904131018 50 101 0.0 3.0 0.00 0.04 0.00 92 1008.9
20260904130517 50 106 0.0 3.0 0.00 0.04 0.00 92 1008.8
20260904130018 50 69 1.0 2.0 0.00 0.04 0.00 92 1008.8
20260904125516 50 67 1.0 2.0 0.00 0.04 0.00 92 1008.8
20260904125018 50 67 0.0 2.0 0.00 0.04 0.00 92 1008.7
20260904124523 50 67 0.0 2.0 0.00 0.04 0.00 92 1008.6
20260904124013 50 67 0.0 2.0 0.00 0.04 0.00 92 1008.5
20260904123514 50 67 0.0 2.0 0.00 0.04 0.00 92 1008.4
20260904123012 50 67 1.0 2.0 0.00 0.04 0.00 92 1008.5
20260904122511 50 67 0.0 2.0 0.00 0.04 0.00 92 1008.3
20260904122009 50 97 0.0 2.0 0.00 0.04 0.00 92 1008.2
20260904121509 50 97 0.0 2.0 0.00 0.04 0.00 92 1008.1
20260904121010 50 97 0.0 1.0 0.00 0.04 0.00 92 1008.0